Flag for United Kingdom Weather past 2 weeks in Taunton, England, United Kingdom

Now
59 °F

Duststorm.


Feels Like: 58 °F
Forecast: 50 / 64 °F
Wind: 6 mph from Northeast

Location: Dunkeswell Aerodrome

Current Time: Sep 20, 2014 at 6:01:35 AM

Latest Report: Sep 20, 2014 at 5:00 AM


Visibility: 0 mi

Pressure: 29.94 "Hg

Humidity: 100%

Dew point: 59 °F

Location of TauntonLocation

Historic Weather in Taunton — Graph

°F

Taunton temperature yesterday

Maximum temperature yesterday: 66 °F (at 4:00 PM)
Minimum temperature yesterday: 59 °F (at 4:00 AM)
Average temperature yesterday: 62 °F

Past Weeks' High & Low Weather Summary

 TemperatureHumidityPressure
High72 °F (Sep 18, 4:00 PM)100% (Sep 5, 4:00 AM)30.31 "Hg (Sep 5, 4:00 AM)
Low47 °F (Sep 8, 5:00 AM)56% (Sep 6, 3:00 PM)29.75 "Hg (Sep 18, 4:00 PM)
Average59 °F85%30.04 "Hg
* Reported Sep 5 4:00 AM — Sep 20 4:00 AM, Taunton, Weather by CustomWeather, © 2014

Note: Actual official high and low records may vary slightly from our data, if they occured in-between our weather recording intervals... More about our weather records

Advertising

Taunton weather history for previous 24 hours

 ConditionsComfort  
Time TempWeatherWind HumidityBarometerVisibility
4:00 AM
Sep 20
59 °FDuststorm.6 mph100%29.94 "Hg0 mi
3:00 AM60 °FDuststorm.6 mph100%29.94 "Hg0 mi
2:00 AM60 °FDuststorm.5 mph100%29.94 "Hg0 mi
1:00 AM60 °FDuststorm.3 mph100%29.94 "Hg0 mi
12:00 AM60 °FDuststorm.5 mph100%29.94 "Hg1 mi
11:00 PM
Sep 19
59 °FDuststorm.3 mph100%29.94 "Hg1 mi
9:00 PM59 °FCool.3 mph100%29.92 "Hg1 mi
8:00 PM60 °FFog.6 mph97%29.90 "Hg1 mi
7:00 PM63 °FSmoke.7 mph92%29.88 "Hg3 mi
6:00 PM65 °FSmoke.7 mph89%29.86 "Hg4 mi
5:00 PM66 °FSmoke.9 mph86%29.85 "Hg4 mi
4:00 PM66 °FSmoke.9 mph89%29.85 "Hg4 mi
3:00 PM65 °FSmoke.10 mph89%29.85 "Hg6 mi
2:00 PM66 °FSmoke.7 mph89%29.85 "Hg7 mi
1:00 PM65 °FMild.7 mph89%29.85 "Hg9 mi
12:00 PM63 °FMild.7 mph95%29.85 "Hg10 mi
11:00 AM60 °FRain. Cloudy.7 mph100%29.83 "Hg4 mi
10:00 AM60 °FLight freezing rain. Cloudy.12 mph100%29.85 "Hg2 mi
9:00 AM60 °FRain. Cloudy.9 mph100%29.84 "Hg1 mi
8:00 AM61 °FRain showers. Cloudy.1 mph99%29.83 "Hg2 mi
7:00 AM61 °FFog.9 mph100%29.80 "Hg2 mi
6:00 AM60 °FFog.6 mph100%29.79 "Hg3 mi
Weather by CustomWeather, © 2014

See weather overviewHow to use our weather pages